This demonstration page uses our WeatherBlox Daily Observations layout. Learn more.

Left ArrowRight Arrow

40.97296, -117.73568

Hourly Observations for August 20, 2022

Temp ( °F °C ) Dew Point ( °F °C ) Humidity (%) Winds ( mph kmh ) Pressure ( in mb ) Visibility ( mi km ) Precip ( " mm )
12:56 am 00:56 Partly Cloudy 66 18.9 44 6.7 45 45 E 5 7 29.82 1010 10 16 0.00 0.00
1:56 am 01:56 Clear 62 16.7 42 5.6 48 48 ESE 8 13 29.82 1010 10 16 0.00 0.00
2:56 am 02:56 Clear 61 16.1 42 5.6 50 50 VRB 5 7 29.82 1010 10 16 0.00 0.00
3:56 am 03:56 Clear 58 14.4 42 5.6 55 55 Calm 29.83 1010 10 16 0.00 0.00
4:56 am 04:56 Clear 56 13.3 42 5.6 60 60 SE 7 11 29.84 1011 10 16 0.00 0.00
5:56 am 05:56 Clear 55 12.8 41 5 59 59 Calm 29.87 1012 10 16 0.00 0.00
6:56 am 06:56 Sunny 59 15 43 6.1 55 55 Calm 29.87 1012 10 16 0.00 0.00
7:56 am 07:56 Sunny 69 20.6 49 9.4 49 49 ENE 10 17 29.88 1012 10 16 0.00 0.00
8:56 am 08:56 Sunny 76 24.4 49 9.4 39 39 ENE 9 15 29.87 1012 10 16 0.00 0.00
9:56 am 09:56 Sunny 81 27.2 46 7.8 29 29 E 3 6 29.87 1012 10 16 0.00 0.00
10:56 am 10:56 Sunny 86 30 46 7.8 25 25 Calm 29.87 1012 10 16 0.00 0.00
11:56 am 11:56 Sunny 91 32.8 46 7.8 21 21 NNW 9 15 29.84 1011 10 16 0.00 0.00
12:56 pm 12:56 Sunny 93 33.9 45 7.2 19 19 W 13 20 29.83 1010 10 16 0.00 0.00
1:56 pm 13:56 Partly Cloudy 94 34.4 41 5 16 16 WNW 12 19 29.83 1010 10 16 0.00 0.00
2:56 pm 14:56 Mostly Sunny 95 35 40 4.4 15 15 NW 12 19 29.82 1010 10 16 0.00 0.00
3:56 pm 15:56 Sunny 94 34.4 40 4.4 15 15 VRB 3 6 29.81 1009 10 16 0.00 0.00
4:56 pm 16:56 Sunny 94 34.4 41 5 16 16 Calm 29.80 1009 10 16 0.00 0.00
5:56 pm 17:56 Sunny 95 35 38 3.3 14 14 W 10 17 29.80 1009 10 16 0.00 0.00
6:56 pm 18:56 Sunny 93 33.9 37 2.8 14 14 NW 5 7 29.80 1009 10 16 0.00 0.00
7:56 pm 19:56 Clear 84 28.9 39 3.9 20 20 NW 3 6 29.80 1009 10 16 0.00 0.00
8:56 pm 20:56 Clear 76 24.4 39 3.9 26 26 ESE 3 6 29.83 1010 10 16 0.00 0.00
9:56 pm 21:56 Clear 69 20.6 38 3.3 32 32 SSE 6 9 29.84 1010 10 16 0.00 0.00
10:56 pm 22:56 Clear 69 20.6 40 4.4 34 34 SE 7 11 29.84 1011 10 16 0.00 0.00
11:56 pm 23:56 Mostly Cloudy 68 20 37 2.8 32 32 ESE 7 11 29.85 1011 10 16 0.00 0.00

Powered by AerisWeather